Location: Berg
(47.2344°N, 9.5296°E)
Time: 23:50:31
(UTC+00:00)

BEESAT 2 - Pass Details

Date: 07 December 2021
Orbit: 498 x 513 km, 64.9° (Epoch: 24 January)

Event Time Altitude Azimuth Distance (km) Brightness Sun altitude
Exits shadow 05:00:08 46° 310° (NW) 704 ? -18.6°
Maximum altitude 05:01:13 77° 235° (SW) 534 ? -18.4°
Drops below altitude 10° 05:05:05 10° 150° (SSE) 1,733 ? -17.8°
Sets 05:07:14 0° 148° (SSE) 2,612 ? -17.4°
